Vertical_Velocity
-2 -2 -2 -2 -0 2 3 3 3 5 7 9 9 8 6 6 5 5 5 3 2 1 0 -0 1 1 -0 -2 -1 0 2 1 2 7 14 20 23 23 19 14 10 7 9 14 16 13 9 5 3 2 1 0 -0 -0 1 3 7 9 9 6 3 2 1 0 -1 -1 -1 -2 -2
-3 -3 -3 -4 -3 -2 -1 -1 -1 -1 0 2 4 5 5 4 4 4 3 3 3 3 2 1 1 0 -1 -3 -4 -4 -3 -2 3 12 21 29 27 22 16 13 16 19 21 22 17 12 8 6 3 2 2 2 2 2 4 8 10 10 7 4 1 0 -0 -1 -2 -2 -2 -2 -2
-4 -4 -4 -4 -5 -4 -4 -3 -4 -4 -4 -3 -1 1 3 3 3 2 2 1 1 2 2 3 3 3 2 1 -0 -2 -2 0 8 16 21 21 12 5 2 3 11 17 21 19 15 11 8 5 4 6 9 8 4 5 7 10 9 7 4 1 0 -1 -1 -2 -2 -2 -2 -2 -2
-3 -3 -3 -3 -4 -5 -5 -4 -4 -5 -5 -5 -3 -1 1 1 1 1 0 -0 -0 -1 -1 0 1 2 3 3 2 1 0 2 13 18 17 10 3 -1 -2 -2 1 5 8 8 6 5 3 1 3 8 12 9 4 4 6 7 5 2 0 -1 -1 -1 -1 -2 -1 -1 -2 -2 -1
-1 -1 -1 -1 -2 -3 -4 -4 -4 -4 -5 -5 -4 -3 -2 -1 -1 -1 -1 -1 -2 -3 -3 -3 -2 -1 1 3 3 3 2 1 4 6 5 2 -1 -3 -3 -3 -1 1 3 4 3 2 1 -0 1 3 4 2 1 1 2 1 0 -1 -1 -1 -1 -1 -1 -1 -1 -1 -1 -2 -1
1 0 0 0 -0 -1 -2 -3 -3 -3 -3 -3 -4 -4 -4 -4 -3 -2 -2 -3 -3 -3 -3 -4 -3 -2 -0 2 4 5 5 3 0 -1 -0 2 6 8 9 9 6 1 -1 -1 -0 -0 -1 -1 -1 -1 -1 -1 -0 0 1 1 -0 -1 -1 -1 -1 -1 -1 -1 -1 -1 -1 -2 -1
3 2 2 1 1 -0 -1 -2 -2 -2 -1 -1 -2 -3 -4 -5 -4 -3 -3 -3 -3 -3 -3 -3 -2 -1 -0 2 3 5 6 6 4 3 1 1 1 2 4 9 9 5 0 -2 -1 -2 -2 -2 -2 -2 -1 0 1 1 1 1 -0 -0 -1 -1 -1 -1 -0 -2 -1 -0 -1 -2 -1
1 2 2 2 1 0 -1 -1 -2 -2 -1 -0 0 -1 -3 -5 -4 -4 -3 -1 -2 -2 -2 -1 -0 0 1 2 2 3 4 5 5 4 4 3 1 -0 -1 -1 0 0 1 3 2 1 -0 -0 -1 -1 -0 1 1 1 1 1 0 -0 -1 -1 -2 -1 -0 -1 -1 -0 0 -1 -1
-2 -2 -0 1 1 1 0 -0 -1 -2 -2 -2 -1 -1 -2 -3 -4 -4 -3 -3 -3 -2 -2 -2 -1 -0 1 0 1 2 3 4 5 4 4 4 4 4 3 2 1 1 2 4 4 3 2 2 1 1 0 1 1 1 1 2 0 -1 -1 -1 -2 -2 -1 -0 -0 -0 -0 0 -0
-4 -4 -3 -2 -1 0 1 0 -0 -1 -1 -2 -2 -2 -1 -2 -2 -3 -4 -5 -4 -4 -3 -4 -3 -2 -2 -1 0 0 1 2 3 4 4 3 4 5 6 6 5 5 4 5 5 4 3 3 2 0 -0 1 0 0 1 2 1 -0 -1 -0 -1 -1 -1 -0 0 -0 -1 0 0
-2 -3 -4 -4 -4 -2 -1 -0 -0 1 1 -0 -1 -2 -2 -2 -2 -2 -3 -3 -4 -4 -5 -4 -4 -4 -3 -1 0 0 0 1 1 2 2 1 2 2 3 3 3 4 3 4 4 4 4 3 2 1 0 0 1 1 1 2 1 0 -0 0 1 -0 -1 -1 1 -0 -1 -1 0
0 -1 -2 -4 -4 -4 -4 -3 -1 1 2 2 1 1 -0 -1 -1 -0 -1 -1 -2 -3 -3 -3 -4 -4 -3 -1 -1 0 1 1 -0 -0 -0 -0 0 0 1 0 1 1 1 1 3 3 3 3 3 3 2 1 2 2 1 1 1 1 0 0 1 -0 -1 -1 0 -0 -1 -1 -1
1 1 -0 -1 -2 -3 -4 -5 -3 -1 0 1 2 3 2 0 1 1 1 0 0 0 -0 -2 -3 -3 -2 -2 -1 -0 1 1 -0 -1 -2 -2 -1 -1 -1 -1 -0 -0 -0 -1 1 2 2 2 3 3 2 2 3 3 2 1 1 0 -0 -1 -1 -1 -1 -1 -0 -0 -0 -1 -1
1 1 0 1 -0 -1 -2 -3 -3 -3 -1 -0 1 2 2 1 2 2 2 1 2 2 2 1 -0 -0 -1 -1 -1 -0 1 1 1 -1 -2 -3 -2 -3 -3 -3 -2 -1 -1 -2 0 1 1 1 3 3 3 2 3 3 2 1 0 -0 -1 -1 -2 -2 -2 -1 -1 -1 -1 -2 -2
-1 -1 -0 1 0 -0 -0 -0 -1 -1 -1 -2 -1 1 1 1 1 2 2 1 2 3 3 2 2 2 2 1 -0 -0 1 2 1 1 -0 -1 -2 -3 -3 -3 -2 -2 -2 -2 -1 -0 0 0 1 2 2 1 2 2 2 1 0 -0 -1 -1 -2 -2 -2 -2 -2 -3 -3 -3 -3
-2 -2 -1 -1 -1 -1 0 1 1 1 1 -1 -1 -0 -0 -1 0 1 1 -1 1 2 2 1 2 3 3 1 1 1 2 1 2 2 1 1 -0 -1 -2 -2 -2 -1 -1 -1 -1 -1 -1 -1 -1 -1 -1 -0 -0 0 0 0 -0 -1 -2 -2 -2 -3 -3 -3 -3 -4 -4 -3 -3
-2 -2 -2 -2 -2 -2 -1 -1 1 2 2 2 2 1 -1 -2 -1 -0 -0 -1 1 1 1 -0 2 3 2 1 2 3 2 1 1 2 2 1 1 0 -0 -1 -1 -0 -0 -1 -1 -1 -1 -2 -2 -2 -1 -1 -1 -1 -1 -1 -2 -2 -2 -3 -3 -3 -3 -3 -3 -3 -2 -1 -1
-2 -2 -2 -2 -2 -2 -2 -2 -1 0 2 3 3 2 1 -0 -0 -1 -1 -0 1 1 -0 -0 2 2 2 0 2 2 2 0 1 1 2 1 1 1 0 -1 -0 -0 -1 -1 -1 -1 -1 -1 -2 -2 -1 -1 -1 -1 -1 -1 -2 -2 -2 -2 -2 -2 -2 -2 -1 -1 -0 1 1
-2 -2 -2 -3 -3 -2 -2 -2 -2 -1 0 2 3 2 2 1 1 0 -0 -0 1 1 1 0 1 2 1 1 1 1 1 0 0 1 1 1 0 1 0 -0 -0 -1 -1 -1 -1 -0 -0 -1 -1 -1 -1 -1 -1 -0 -0 -0 -1 -1 -0 -0 -1 -1 -1 -1 -1 -0 -0 -0 -0
-2 -2 -2 -3 -3 -3 -3 -3 -2 -2 -1 1 1 2 2 2 2 1 0 -1 1 1 1 1 2 2 1 1 2 1 0 1 1 0 0 1 1 0 0 1 0 -0 -0 -0 -0 -0 -0 -0 -0 0 0 0 0 1 1 1 0 0 -0 -0 -1 -1 -1 -1 -1 -1 -1 -1 -1
-1 -1 -2 -1 -2 -2 -3 -3 -2 -2 -1 0 1 1 1 1 2 1 0 0 1 1 1 0 2 3 2 1 1 1 1 2 2 1 0 2 1 1 0 2 1 0 0 1 0 -0 -0 0 0 1 1 1 1 1 2 2 1 0 0 -0 -1 -1 -1 -1 -1 -1 -1 -1 -1
-1 -1 -1 -1 -1 -2 -2 -2 -2 -2 -1 -0 1 0 0 -0 -0 0 1 1 2 1 0 1 3 3 2 2 2 2 1 2 2 1 1 3 2 1 1 2 1 1 1 1 1 0 -0 0 1 1 1 1 1 2 2 2 1 0 -0 -0 -1 -1 -1 -1 -1 -1 -1 -1 -0
-1 -1 -1 -1 -1 -1 -1 -1 -2 -2 -2 -1 1 1 0 -1 -1 -1 -0 0 1 1 1 2 3 3 2 3 3 3 2 2 2 2 2 2 2 1 1 2 1 1 1 2 1 1 0 0 1 1 1 1 1 1 2 2 1 -0 -0 -1 -1 -1 -1 -1 -0 -0 -0 0 1
-2 -2 -1 -1 -1 -1 -1 -1 -2 -2 -2 -1 0 1 1 -0 -1 -1 -1 -1 -0 1 1 2 2 2 2 3 4 3 3 2 2 2 2 2 2 1 2 2 1 0 0 2 1 1 -0 0 0 1 1 1 1 1 2 2 1 0 0 0 0 0 0 0 1 1 1 1 1
-2 -2 -1 -1 -1 -1 -1 -1 -2 -2 -2 -2 -0 1 1 0 -0 -1 -1 -1 -0 1 1 1 1 2 2 3 3 3 3 3 3 3 3 2 2 2 2 2 1 1 0 1 0 -0 -0 -0 -0 0 1 1 1 2 2 2 2 1 1 1 1 1 1 1 1 2 2 2 2
-3 -2 -2 -1 -1 -1 -1 -1 -2 -2 -3 -2 -1 -0 0 1 1 1 0 -1 -0 1 1 1 1 1 2 2 2 2 3 3 3 3 3 2 2 2 2 1 1 1 1 0 -0 -1 -0 -0 0 1 2 2 3 3 3 2 2 2 1 1 1 1 1 1 2 2 3 2 2
-3 -3 -3 -2 -1 -1 -2 -1 -1 -2 -3 -3 -2 -1 -0 2 3 2 1 0 0 0 0 0 0 1 2 2 2 2 2 3 3 3 2 3 3 2 2 1 1 1 1 1 0 0 1 1 2 2 3 3 3 3 3 2 2 2 1 0 1 1 1 1 2 2 3 3 2
-2 -3 -3 -2 -1 -2 -2 -1 -1 -3 -4 -3 -3 -2 -1 3 4 3 3 2 1 1 -0 -1 -1 1 1 1 0 1 2 2 2 2 2 2 2 2 2 2 1 1 1 1 1 1 2 2 3 3 3 4 3 3 3 2 2 1 1 0 0 1 1 1 2 2 2 2 2
-1 -1 -1 -0 -1 -2 -2 -1 -3 -3 -4 -3 -3 -3 -2 1 3 4 4 4 3 1 -1 -2 -0 1 1 -1 -0 1 2 1 0 1 1 2 2 2 2 2 2 1 2 2 2 2 3 3 3 3 3 3 3 2 2 1 1 0 0 0 0 0 1 1 2 2 1 1 1
0 1 1 1 1 1 -0 -1 -2 -2 -3 -3 -4 -4 -3 -1 2 4 5 5 3 1 0 0 1 1 0 -1 1 1 0 -1 -0 1 1 1 2 2 3 3 2 2 2 3 2 3 3 3 3 2 2 2 2 1 1 0 -0 -0 -1 -0 -0 0 1 1 1 1 1 0 0
1 2 2 3 3 2 2 0 -0 -1 -1 -2 -2 -3 -3 -2 -0 2 4 5 3 2 2 3 1 -0 -0 1 2 1 -1 -1 1 2 2 2 2 2 3 3 2 2 2 3 3 3 2 2 2 1 1 1 1 0 -0 -0 -1 -1 -1 -1 -0 0 1 1 1 1 0 0 -0
2 2 3 4 4 4 3 2 2 1 1 1 -0 -1 -2 -2 -2 -0 2 4 4 4 3 2 1 0 0 2 2 1 0 1 2 2 2 3 3 2 3 2 2 2 2 3 3 2 2 1 1 0 -0 -0 -0 -0 -0 -0 -1 -1 -1 -1 -1 -0 0 1 1 1 1 0 -0
1 1 2 3 3 4 4 3 3 2 2 2 2 1 0 -2 -2 -1 1 2 4 4 3 2 1 1 1 2 2 2 1 2 3 3 3 3 3 3 2 2 2 2 2 3 3 2 2 1 -0 -1 -1 -0 -0 -0 -0 -0 -0 -0 -1 -1 -1 -0 0 1 1 1 1 1 0
-1 -1 -0 1 2 2 3 3 3 3 4 4 3 2 2 0 -1 -1 -0 1 4 4 4 3 3 2 1 2 3 3 2 3 3 3 3 3 3 3 2 2 2 3 3 2 2 2 2 0 -1 -1 -1 -0 -0 -0 -0 -0 -0 -0 -1 -1 -1 -0 0 1 1 1 1 1 1
-3 -3 -2 -1 -0 0 1 1 2 3 4 5 4 3 2 1 0 -0 -0 1 3 4 4 4 4 3 1 1 3 3 3 3 3 3 2 2 3 3 3 2 3 3 2 2 2 2 2 0 -1 -1 -1 0 0 0 0 0 0 -0 -0 -1 -1 -0 0 1 1 1 1 1 1
-4 -4 -4 -3 -2 -1 -1 -1 -1 1 3 5 6 5 3 1 -0 -0 -0 1 2 4 5 6 6 4 2 1 3 3 2 2 2 2 2 2 3 3 3 3 3 2 2 1 2 2 2 0 -1 -1 -0 0 0 1 1 1 0 -0 -0 -1 -1 -0 0 1 1 1 1 1 1
-4 -4 -5 -4 -3 -2 -1 -2 -1 -0 1 3 5 5 4 2 1 -1 -1 1 2 3 4 7 7 5 3 3 3 1 0 1 2 2 2 3 4 4 3 3 2 2 1 1 2 2 1 0 -1 -1 -0 0 0 1 1 1 0 0 -0 -1 -1 -1 0 1 1 1 1 1 1
-3 -4 -4 -5 -4 -3 -2 -1 -1 -0 0 0 2 4 5 4 2 -0 -1 0 1 2 3 7 7 6 5 5 3 0 -1 1 2 2 2 3 4 4 3 3 2 1 1 1 1 2 2 1 -0 -0 -0 0 0 1 1 1 0 -0 -1 -1 -1 -1 -0 1 1 1 1 2 2
-2 -2 -3 -3 -4 -3 -2 -1 -1 -0 0 1 1 2 4 5 3 1 -1 -0 0 1 3 6 6 6 6 6 2 -0 -1 1 1 2 2 3 3 3 3 2 2 1 1 1 1 2 2 1 -0 -0 -0 0 0 1 1 1 0 -0 -1 -1 -1 -1 -0 1 1 1 1 2 2
-1 -1 -2 -2 -2 -2 -1 -1 -1 -1 0 1 1 1 2 3 3 1 0 -0 0 1 3 4 5 6 6 5 2 1 0 1 1 2 2 3 3 4 3 2 2 2 1 1 1 2 2 1 0 -0 -0 0 1 1 2 2 1 -0 -1 -1 -1 -1 -0 0 1 1 1 1 2
-1 -0 -0 -0 0 1 1 1 -0 -0 1 2 2 1 1 2 3 2 1 0 -0 0 2 3 4 5 6 5 3 2 1 1 2 2 3 3 4 4 4 3 2 2 1 0 1 2 2 1 0 -0 -0 0 1 1 2 2 1 -0 -1 -1 -1 -0 0 0 0 0 1 1 1
Height
5757 5757 5758 5758 5758 5757 5757 5757 5757 5757 5758 5758 5758 5758 5758 5759 5760 5760 5761 5761 5761 5761 5761 5761 5761 5761 5761 5760 5760 5761 5761 5761 5762 5762 5763 5763 5764 5764 5764 5764 5762 5760 5759 5760 5761 5761 5761 5761 5761 5761 5760 5760 5760 5760 5760 5760 5761 5761 5761 5761 5760 5760 5760 5760 5759 5759 5759 5758 5758
5754 5754 5755 5755 5755 5755 5754 5754 5754 5754 5755 5755 5755 5755 5755 5755 5756 5756 5757 5758 5759 5759 5759 5759 5759 5759 5758 5758 5758 5758 5758 5758 5759 5761 5761 5761 5761 5760 5759 5759 5758 5758 5758 5758 5758 5758 5757 5757 5757 5757 5757 5757 5757 5757 5757 5757 5758 5758 5757 5757 5757 5756 5756 5756 5756 5756 5755 5755 5754
5751 5751 5751 5751 5751 5751 5751 5751 5751 5751 5751 5751 5751 5751 5751 5751 5752 5753 5754 5754 5755 5756 5757 5757 5757 5756 5756 5756 5756 5755 5756 5756 5757 5757 5756 5755 5754 5753 5753 5753 5754 5755 5755 5754 5754 5754 5754 5754 5754 5753 5753 5753 5754 5754 5754 5754 5754 5754 5754 5753 5753 5753 5753 5752 5752 5752 5751 5751 5751
5747 5747 5748 5748 5748 5748 5748 5748 5748 5748 5748 5749 5749 5748 5748 5748 5749 5749 5750 5751 5751 5752 5753 5754 5754 5754 5753 5753 5753 5753 5753 5753 5754 5753 5752 5750 5749 5749 5749 5749 5749 5749 5749 5749 5749 5749 5749 5750 5750 5749 5749 5749 5750 5751 5751 5751 5751 5750 5750 5750 5750 5749 5749 5749 5748 5748 5748 5748 5747
5744 5744 5744 5744 5744 5744 5744 5744 5744 5745 5745 5746 5746 5746 5745 5745 5746 5746 5746 5747 5748 5748 5749 5750 5751 5751 5751 5750 5750 5750 5750 5749 5749 5748 5747 5747 5746 5746 5746 5746 5746 5746 5746 5746 5746 5746 5746 5746 5746 5746 5746 5746 5746 5747 5747 5747 5747 5746 5746 5746 5746 5746 5746 5745 5745 5745 5745 5744 5744
5741 5740 5740 5740 5740 5740 5740 5741 5741 5741 5741 5742 5742 5742 5742 5742 5742 5743 5743 5743 5744 5745 5745 5746 5746 5747 5747 5747 5747 5747 5746 5746 5746 5745 5745 5745 5745 5745 5746 5745 5743 5742 5742 5742 5742 5742 5742 5743 5743 5743 5743 5743 5743 5743 5743 5743 5743 5743 5743 5742 5742 5742 5742 5741 5741 5741 5741 5741 5740
5738 5737 5737 5736 5736 5736 5736 5736 5737 5737 5738 5739 5739 5739 5739 5739 5740 5740 5740 5740 5741 5741 5741 5742 5743 5743 5743 5743 5743 5743 5743 5743 5743 5742 5742 5741 5741 5741 5741 5741 5741 5740 5739 5739 5739 5739 5739 5740 5740 5740 5740 5740 5740 5740 5739 5739 5739 5739 5739 5738 5738 5738 5738 5737 5737 5737 5737 5736 5736
5735 5735 5734 5733 5733 5733 5732 5732 5733 5733 5734 5735 5735 5736 5736 5736 5736 5736 5736 5737 5737 5737 5738 5738 5739 5739 5739 5739 5739 5739 5740 5740 5740 5739 5739 5738 5738 5737 5736 5736 5736 5736 5736 5736 5736 5736 5736 5736 5736 5736 5736 5736 5736 5736 5735 5735 5735 5735 5734 5734 5734 5734 5734 5733 5733 5733 5733 5733 5732
5732 5731 5731 5730 5730 5729 5729 5728 5728 5729 5729 5730 5730 5731 5731 5732 5732 5732 5733 5733 5733 5733 5733 5734 5734 5734 5735 5735 5735 5735 5735 5736 5736 5736 5736 5735 5734 5734 5733 5733 5732 5732 5731 5731 5731 5731 5731 5731 5731 5731 5731 5731 5731 5731 5731 5731 5730 5730 5730 5730 5730 5729 5729 5729 5729 5729 5729 5728 5728
5728 5728 5727 5727 5726 5726 5725 5725 5724 5724 5724 5725 5725 5726 5726 5727 5727 5728 5728 5728 5728 5728 5729 5729 5729 5729 5730 5730 5730 5730 5730 5730 5731 5731 5731 5731 5731 5730 5729 5728 5728 5727 5727 5727 5726 5726 5726 5726 5726 5726 5727 5727 5727 5726 5726 5726 5726 5726 5726 5725 5725 5725 5725 5725 5725 5725 5725 5724 5724
5724 5724 5724 5724 5723 5722 5722 5721 5721 5721 5720 5720 5720 5720 5721 5721 5722 5722 5723 5723 5723 5724 5724 5723 5724 5724 5725 5725 5725 5725 5725 5725 5725 5725 5726 5726 5726 5726 5725 5724 5724 5723 5722 5722 5722 5721 5721 5721 5721 5722 5722 5722 5722 5722 5722 5722 5721 5721 5721 5721 5721 5721 5721 5721 5721 5721 5721 5720 5720
5721 5721 5720 5720 5720 5719 5719 5718 5718 5717 5717 5716 5716 5716 5716 5716 5716 5717 5717 5718 5719 5719 5718 5718 5719 5719 5719 5720 5720 5721 5721 5720 5720 5720 5720 5720 5720 5720 5720 5720 5719 5719 5718 5718 5717 5717 5717 5717 5717 5717 5717 5718 5718 5718 5718 5717 5717 5717 5717 5717 5717 5717 5717 5717 5717 5717 5716 5716 5716
5717 5717 5717 5716 5716 5716 5716 5716 5715 5715 5714 5713 5713 5712 5712 5712 5712 5712 5712 5713 5713 5714 5714 5714 5714 5714 5714 5714 5715 5715 5716 5716 5715 5715 5715 5715 5715 5715 5715 5715 5715 5715 5714 5714 5714 5714 5713 5713 5713 5714 5714 5714 5714 5714 5714 5713 5713 5713 5713 5713 5713 5713 5713 5713 5713 5713 5712 5712 5711
5715 5714 5713 5713 5713 5713 5713 5713 5712 5712 5711 5711 5710 5709 5708 5708 5707 5707 5708 5708 5708 5709 5709 5709 5710 5710 5709 5709 5710 5710 5710 5711 5710 5710 5710 5710 5710 5710 5710 5710 5710 5710 5710 5710 5710 5710 5710 5709 5709 5709 5710 5710 5710 5709 5709 5709 5709 5709 5709 5709 5709 5709 5709 5709 5709 5709 5708 5708 5707
5711 5711 5710 5710 5709 5709 5709 5709 5709 5709 5709 5708 5707 5706 5705 5704 5704 5703 5703 5703 5703 5704 5704 5705 5705 5705 5705 5705 5705 5705 5705 5706 5706 5706 5706 5705 5705 5705 5705 5705 5705 5706 5706 5706 5705 5705 5705 5705 5705 5705 5705 5705 5705 5705 5705 5705 5705 5705 5705 5705 5705 5705 5705 5704 5704 5704 5704 5703 5703
5707 5707 5706 5706 5706 5706 5705 5705 5705 5705 5705 5704 5703 5703 5702 5701 5700 5700 5699 5699 5699 5699 5699 5700 5700 5700 5700 5701 5701 5701 5701 5701 5701 5701 5701 5701 5701 5701 5701 5701 5701 5701 5701 5701 5701 5701 5701 5700 5700 5700 5700 5700 5700 5700 5700 5700 5700 5700 5700 5700 5700 5700 5700 5700 5700 5699 5699 5699 5699
5703 5703 5703 5702 5702 5702 5701 5701 5701 5701 5701 5700 5699 5699 5698 5698 5697 5696 5696 5695 5695 5695 5695 5695 5695 5695 5695 5695 5696 5696 5696 5696 5696 5696 5696 5696 5696 5696 5696 5696 5696 5696 5696 5696 5696 5696 5696 5696 5696 5696 5696 5695 5695 5695 5695 5695 5695 5695 5695 5695 5695 5695 5695 5695 5695 5695 5695 5695 5695
5699 5699 5699 5698 5698 5698 5697 5697 5697 5697 5696 5696 5695 5695 5694 5694 5693 5692 5692 5691 5691 5691 5691 5690 5690 5690 5690 5690 5690 5690 5691 5691 5691 5691 5691 5691 5691 5691 5691 5691 5691 5691 5691 5692 5691 5691 5691 5691 5691 5691 5691 5691 5691 5691 5691 5691 5691 5691 5691 5691 5691 5691 5691 5691 5691 5691 5691 5691 5691
5695 5695 5695 5694 5694 5693 5693 5693 5693 5693 5692 5691 5691 5690 5690 5689 5689 5688 5688 5687 5687 5687 5686 5686 5686 5686 5686 5686 5685 5685 5685 5686 5686 5686 5686 5686 5686 5686 5686 5686 5686 5686 5686 5687 5686 5686 5686 5686 5686 5686 5686 5686 5686 5686 5686 5686 5686 5686 5686 5686 5686 5686 5687 5687 5687 5687 5687 5687 5687
5691 5691 5691 5690 5690 5689 5689 5688 5688 5688 5688 5687 5687 5686 5686 5685 5684 5684 5684 5683 5683 5683 5682 5682 5682 5681 5681 5681 5681 5681 5680 5681 5681 5681 5681 5681 5681 5681 5681 5681 5681 5681 5681 5681 5681 5681 5682 5682 5682 5682 5682 5682 5682 5682 5682 5682 5682 5682 5682 5682 5682 5682 5682 5682 5682 5682 5682 5682 5682
5687 5687 5686 5686 5685 5685 5684 5684 5684 5683 5683 5683 5683 5682 5681 5681 5681 5680 5680 5679 5678 5678 5678 5678 5677 5677 5677 5677 5676 5676 5676 5676 5676 5676 5676 5676 5676 5676 5676 5676 5676 5676 5676 5676 5677 5677 5677 5677 5677 5678 5678 5678 5678 5678 5678 5678 5678 5678 5677 5677 5677 5678 5678 5678 5678 5678 5678 5678 5678
5683 5682 5682 5681 5681 5680 5680 5679 5679 5679 5679 5678 5678 5677 5677 5677 5676 5676 5676 5675 5675 5674 5674 5674 5673 5673 5673 5673 5672 5672 5672 5671 5671 5671 5671 5671 5671 5671 5671 5671 5671 5672 5672 5672 5672 5672 5672 5672 5673 5673 5673 5674 5674 5674 5674 5674 5673 5673 5673 5673 5673 5673 5673 5674 5674 5674 5674 5674 5674
5678 5678 5677 5677 5676 5676 5675 5675 5674 5674 5674 5673 5673 5673 5672 5672 5672 5671 5671 5671 5671 5670 5670 5669 5669 5669 5668 5668 5668 5668 5667 5667 5667 5667 5667 5667 5667 5667 5667 5667 5667 5667 5667 5667 5667 5668 5668 5668 5668 5668 5669 5669 5669 5669 5669 5669 5669 5669 5669 5669 5669 5669 5669 5670 5670 5670 5670 5670 5670
5674 5673 5673 5672 5671 5671 5670 5670 5669 5669 5669 5668 5668 5668 5668 5667 5667 5667 5666 5666 5666 5666 5666 5665 5665 5664 5664 5664 5663 5663 5663 5663 5663 5662 5662 5662 5662 5662 5662 5663 5663 5663 5663 5663 5663 5664 5664 5664 5664 5664 5665 5665 5665 5665 5665 5665 5665 5665 5665 5665 5665 5665 5666 5666 5666 5666 5666 5666 5666
5670 5669 5668 5667 5666 5666 5665 5664 5664 5663 5663 5663 5663 5663 5663 5662 5662 5662 5662 5662 5661 5661 5661 5661 5660 5660 5660 5659 5659 5659 5659 5659 5658 5658 5658 5658 5658 5658 5659 5659 5659 5659 5659 5659 5660 5660 5660 5660 5660 5661 5661 5661 5661 5661 5661 5661 5660 5661 5661 5661 5661 5662 5662 5662 5662 5663 5663 5663 5663
5665 5664 5663 5662 5661 5661 5660 5659 5658 5658 5657 5657 5657 5657 5657 5657 5657 5657 5657 5656 5656 5656 5656 5656 5656 5655 5655 5655 5655 5655 5655 5654 5654 5654 5654 5654 5654 5654 5655 5655 5655 5655 5655 5655 5656 5656 5656 5656 5656 5656 5657 5657 5657 5657 5657 5656 5656 5657 5657 5657 5658 5658 5658 5659 5659 5659 5659 5660 5660
5661 5660 5659 5658 5657 5656 5655 5654 5653 5652 5652 5651 5651 5652 5652 5652 5651 5651 5651 5651 5651 5650 5650 5650 5650 5650 5650 5650 5650 5650 5650 5650 5650 5650 5650 5650 5650 5650 5651 5651 5651 5651 5651 5651 5651 5652 5652 5652 5652 5653 5653 5653 5653 5653 5653 5653 5653 5653 5653 5654 5654 5655 5655 5656 5656 5656 5656 5656 5656
5656 5655 5654 5653 5652 5651 5650 5649 5648 5647 5646 5646 5646 5646 5646 5646 5646 5646 5646 5645 5645 5644 5644 5645 5645 5645 5645 5645 5645 5646 5645 5645 5646 5646 5646 5646 5646 5646 5646 5646 5646 5647 5647 5647 5647 5648 5648 5648 5648 5649 5649 5649 5649 5649 5649 5649 5649 5649 5650 5650 5651 5651 5651 5652 5652 5652 5653 5653 5653
5651 5650 5650 5649 5647 5646 5645 5644 5643 5642 5641 5640 5640 5640 5640 5640 5640 5640 5640 5639 5639 5639 5639 5638 5638 5639 5639 5640 5640 5640 5640 5641 5641 5641 5641 5641 5641 5641 5642 5642 5642 5642 5643 5643 5643 5643 5644 5644 5644 5645 5645 5645 5645 5645 5645 5645 5646 5646 5646 5647 5647 5648 5648 5648 5649 5649 5649 5649 5649
5646 5646 5645 5644 5642 5641 5640 5639 5637 5636 5636 5635 5634 5634 5634 5634 5634 5634 5633 5633 5633 5633 5632 5632 5633 5633 5634 5634 5634 5634 5635 5635 5636 5636 5636 5636 5637 5637 5637 5637 5638 5638 5638 5639 5639 5639 5640 5640 5640 5640 5641 5641 5641 5641 5641 5642 5642 5642 5643 5643 5644 5644 5645 5645 5645 5645 5646 5646 5646
5641 5640 5639 5638 5637 5636 5635 5633 5632 5631 5630 5629 5629 5628 5628 5628 5628 5627 5627 5627 5627 5626 5626 5626 5627 5627 5628 5627 5628 5628 5629 5630 5630 5631 5631 5631 5632 5632 5632 5633 5633 5634 5634 5634 5635 5635 5635 5636 5636 5636 5636 5637 5637 5637 5638 5638 5638 5639 5639 5640 5640 5641 5641 5641 5642 5642 5642 5642 5642
5636 5635 5634 5633 5632 5631 5629 5628 5627 5626 5625 5624 5623 5622 5622 5621 5621 5621 5621 5621 5621 5620 5620 5621 5621 5621 5622 5622 5622 5623 5624 5624 5625 5625 5626 5626 5626 5627 5627 5628 5629 5629 5630 5630 5631 5631 5631 5631 5631 5632 5632 5633 5633 5634 5634 5634 5635 5635 5636 5636 5637 5637 5637 5638 5638 5638 5638 5638 5638
5631 5630 5628 5627 5626 5625 5623 5622 5621 5620 5619 5618 5617 5616 5616 5615 5615 5615 5615 5615 5615 5614 5614 5615 5615 5616 5616 5616 5617 5618 5618 5619 5619 5620 5620 5621 5621 5622 5622 5623 5624 5624 5625 5626 5626 5626 5626 5627 5627 5628 5628 5629 5629 5630 5630 5631 5631 5631 5632 5632 5633 5633 5634 5634 5634 5634 5634 5634 5634
5625 5624 5622 5621 5620 5619 5617 5616 5615 5613 5612 5611 5611 5610 5609 5608 5608 5608 5608 5608 5608 5608 5608 5609 5609 5610 5610 5611 5611 5612 5613 5613 5614 5614 5615 5616 5616 5617 5618 5618 5619 5620 5621 5621 5621 5622 5622 5622 5623 5624 5624 5625 5625 5626 5626 5627 5627 5628 5628 5629 5629 5629 5630 5630 5630 5630 5630 5630 5630
5619 5617 5616 5615 5614 5612 5611 5609 5608 5607 5606 5605 5604 5603 5602 5601 5601 5601 5601 5601 5602 5603 5603 5603 5603 5603 5604 5605 5606 5606 5607 5608 5608 5609 5610 5611 5611 5612 5613 5614 5614 5615 5616 5617 5617 5617 5618 5618 5619 5620 5620 5621 5621 5622 5622 5623 5623 5624 5624 5625 5625 5626 5626 5626 5626 5626 5626 5626 5626
5612 5611 5610 5608 5607 5605 5604 5602 5601 5600 5598 5597 5596 5595 5595 5594 5594 5594 5594 5595 5596 5596 5597 5597 5597 5597 5598 5599 5599 5600 5601 5602 5603 5604 5605 5606 5607 5607 5608 5609 5609 5610 5611 5612 5612 5613 5613 5614 5615 5615 5616 5616 5617 5618 5618 5619 5619 5620 5620 5621 5621 5621 5622 5622 5622 5622 5622 5622 5622
5606 5604 5603 5601 5600 5598 5596 5595 5593 5592 5591 5589 5588 5587 5587 5586 5586 5586 5586 5587 5589 5590 5590 5591 5591 5592 5592 5592 5593 5594 5595 5596 5597 5599 5600 5601 5602 5602 5603 5604 5604 5605 5606 5607 5608 5608 5609 5609 5610 5611 5611 5612 5613 5613 5614 5615 5615 5616 5616 5617 5617 5617 5618 5618 5618 5618 5618 5618 5618
5600 5597 5595 5593 5592 5590 5588 5586 5585 5583 5582 5581 5580 5579 5578 5578 5579 5579 5579 5580 5581 5582 5583 5584 5585 5586 5586 5586 5586 5587 5589 5590 5592 5593 5594 5595 5596 5597 5598 5599 5599 5600 5601 5603 5603 5604 5604 5605 5606 5606 5607 5608 5609 5609 5610 5611 5611 5611 5612 5613 5613 5613 5614 5614 5614 5614 5614 5614 5614
5592 5590 5587 5585 5583 5581 5580 5578 5576 5574 5573 5572 5571 5570 5570 5570 5570 5571 5571 5572 5574 5575 5576 5577 5578 5579 5579 5580 5580 5581 5582 5584 5586 5587 5589 5590 5591 5592 5593 5594 5594 5595 5596 5598 5599 5599 5600 5601 5601 5602 5603 5604 5604 5605 5606 5606 5607 5607 5608 5609 5609 5610 5610 5610 5610 5610 5610 5610 5610
5585 5582 5579 5576 5574 5572 5570 5568 5566 5565 5564 5562 5562 5561 5561 5561 5561 5562 5564 5565 5566 5567 5568 5570 5571 5572 5573 5573 5574 5576 5576 5578 5580 5581 5583 5584 5585 5586 5587 5588 5589 5590 5591 5593 5594 5595 5595 5596 5597 5598 5599 5599 5600 5601 5602 5602 5603 5604 5604 5605 5605 5606 5606 5606 5606 5606 5606 5606 5606
5576 5573 5570 5567 5564 5562 5559 5557 5555 5554 5553 5552 5552 5551 5551 5551 5552 5554 5556 5557 5558 5559 5561 5562 5564 5565 5566 5567 5568 5570 5571 5572 5574 5576 5577 5578 5580 5581 5582 5583 5584 5585 5586 5588 5589 5590 5591 5591 5592 5593 5594 5595 5596 5597 5598 5598 5599 5599 5600 5601 5601 5602 5602 5602 5602 5602 5603 5603 5603